When you browse on this site, cookies collect data to enhance your experience and personalize the content and advertising you see.
Visit our Privacy Policy to learn more. By continuing to use the site, you agree to this use of cookies and data.
  • En España
  • Lista de países
  • Para 7 días
  • Temperatura del agua
  • Mapa Satelital
  • El tiempo en el mapa
  • Informadores
  • user-avatar
    Iniciar sesión

    Tiempo cada hora Malanje

    Hoy, 18 Junio, Martes

    Tiempo Temperatura Precipitaciones Viento Presión Humedad
    00:00 +18°C° 0 mm 1 mps 667 mmHg 45%
    01:00 +16°C° 0 mm 1 mps 667 mmHg 46%
    02:00 +16°C° 0 mm 1 mps 667 mmHg 48%
    03:00 +15°C° 0 mm 1 mps 666 mmHg 49%
    04:00 +14°C° 0 mm 1 mps 666 mmHg 51%
    05:00 +14°C° 0 mm 1 mps 667 mmHg 52%
    06:00 +14°C° 0 mm 2 mps 667 mmHg 53%
    07:00 +14°C° 0 mm 2 mps 667 mmHg 54%
    08:00 +18°C° 0 mm 2 mps 668 mmHg 46%
    09:00 +21°C° 0 mm 3 mps 669 mmHg 39%
    10:00 +26°C° 0 mm 3 mps 669 mmHg 32%
    11:00 +27°C° 0 mm 3 mps 669 mmHg 28%
    12:00 +29°C° 0 mm 2 mps 669 mmHg 25%
    13:00 +31°C° 0 mm 2 mps 668 mmHg 21%
    14:00 +30°C° 0 mm 2 mps 668 mmHg 21%
    15:00 +30°C° 0 mm 2 mps 667 mmHg 21%
    16:00 +30°C° 0 mm 2 mps 667 mmHg 21%
    17:00 +27°C° 0 mm 2 mps 667 mmHg 25%
    18:00 +24°C° 0 mm 1 mps 666 mmHg 30%
    19:00 +22°C° 0 mm 1 mps 666 mmHg 34%
    20:00 +21°C° 0 mm 1 mps 666 mmHg 35%
    21:00 +20°C° 0 mm 1 mps 667 mmHg 36%
    22:00 +19°C° 0 mm 1 mps 667 mmHg 37%
    23:00 +19°C° 0 mm 1 mps 667 mmHg 39%

    Mañana, 19 Junio, Miércoles

    Tiempo Temperatura Precipitaciones Viento Presión Humedad
    00:00 +18°C° 0 mm 1 mps 667 mmHg 40%
    01:00 +16°C° 0 mm 1 mps 667 mmHg 41%
    02:00 +15°C° 0 mm 1 mps 666 mmHg 44%
    03:00 +15°C° 0 mm 1 mps 666 mmHg 46%
    04:00 +14°C° 0 mm 1 mps 666 mmHg 49%
    05:00 +14°C° 0 mm 1 mps 667 mmHg 50%
    06:00 +14°C° 0 mm 2 mps 667 mmHg 51%
    07:00 +14°C° 0 mm 2 mps 667 mmHg 52%
    08:00 +18°C° 0 mm 2 mps 668 mmHg 45%
    09:00 +21°C° 0 mm 3 mps 669 mmHg 38%
    10:00 +25°C° 0 mm 4 mps 669 mmHg 30%
    11:00 +27°C° 0 mm 3 mps 669 mmHg 27%
    12:00 +29°C° 0 mm 3 mps 669 mmHg 23%
    13:00 +31°C° 0 mm 2 mps 669 mmHg 20%
    14:00 +31°C° 0 mm 2 mps 668 mmHg 20%
    15:00 +31°C° 0 mm 2 mps 668 mmHg 19%
    16:00 +30°C° 0 mm 1 mps 667 mmHg 19%
    17:00 +27°C° 0 mm 1 mps 667 mmHg 23%
    18:00 +25°C° 0 mm 1 mps 667 mmHg 28%
    19:00 +22°C° 0 mm 1 mps 666 mmHg 32%
    20:00 +21°C° 0 mm 1 mps 667 mmHg 34%
    21:00 +20°C° 0 mm 1 mps 667 mmHg 35%
    22:00 +19°C° 0 mm 1 mps 667 mmHg 37%
    23:00 +19°C° 0 mm 1 mps 667 mmHg 38%

    Pasado mañana, 20 Junio, Jueves

    Tiempo Temperatura Precipitaciones Viento Presión Humedad
    00:00 +18°C° 0 mm 1 mps 667 mmHg 39%
    01:00 +18°C° 0 mm 1 mps 667 mmHg 40%
    02:00 +16°C° 0 mm 2 mps 666 mmHg 42%
    03:00 +15°C° 0 mm 2 mps 666 mmHg 44%
    04:00 +15°C° 0 mm 2 mps 666 mmHg 47%
    05:00 +15°C° 0 mm 2 mps 667 mmHg 48%
    06:00 +15°C° 0 mm 2 mps 667 mmHg 50%
    07:00 +14°C° 0 mm 3 mps 668 mmHg 51%
    08:00 +19°C° 0 mm 3 mps 668 mmHg 44%
    09:00 +22°C° 0 mm 3 mps 669 mmHg 37%
    10:00 +26°C° 0 mm 4 mps 669 mmHg 30%
    11:00 +28°C° 0 mm 3 mps 669 mmHg 27%
    12:00 +30°C° 0 mm 3 mps 669 mmHg 23%
    13:00 +32°C° 0 mm 2 mps 669 mmHg 20%
    14:00 +31°C° 0 mm 2 mps 668 mmHg 20%
    15:00 +31°C° 0 mm 2 mps 667 mmHg 19%
    16:00 +31°C° 0 mm 1 mps 667 mmHg 19%
    17:00 +28°C° 0 mm 1 mps 667 mmHg 23%
    18:00 +25°C° 0 mm 1 mps 666 mmHg 28%
    19:00 +22°C° 0 mm 1 mps 666 mmHg 32%
    20:00 +22°C° 0 mm 1 mps 667 mmHg 33%
    21:00 +21°C° 0 mm 1 mps 667 mmHg 35%
    22:00 +20°C° 0 mm 1 mps 667 mmHg 36%
    23:00 +19°C° 0 mm 1 mps 667 mmHg 39%

    21 Junio, Viernes

    Tiempo Temperatura Precipitaciones Viento Presión Humedad
    00:00 +18°C° 0 mm 1 mps 667 mmHg 41%
    01:00 +16°C° 0 mm 1 mps 666 mmHg 44%
    02:00 +16°C° 0 mm 1 mps 666 mmHg 45%
    03:00 +16°C° 0 mm 1 mps 666 mmHg 45%
    04:00 +15°C° 0 mm 2 mps 666 mmHg 46%
    05:00 +15°C° 0 mm 2 mps 667 mmHg 48%
    06:00 +15°C° 0 mm 2 mps 667 mmHg 50%
    07:00 +15°C° 0 mm 2 mps 668 mmHg 51%
    08:00 +19°C° 0 mm 3 mps 668 mmHg 45%
    09:00 +22°C° 0 mm 3 mps 669 mmHg 38%
    10:00 +26°C° 0 mm 3 mps 669 mmHg 32%
    11:00 +28°C° 0 mm 3 mps 669 mmHg 28%
    12:00 +30°C° 0 mm 3 mps 669 mmHg 25%
    13:00 +31°C° 0 mm 2 mps 668 mmHg 21%
    14:00 +31°C° 0 mm 2 mps 667 mmHg 21%
    15:00 +31°C° 0 mm 2 mps 667 mmHg 21%
    16:00 +31°C° 0 mm 2 mps 666 mmHg 21%
    17:00 +28°C° 0 mm 2 mps 666 mmHg 25%
    18:00 +25°C° 0 mm 1 mps 666 mmHg 30%
    19:00 +23°C° 0 mm 1 mps 666 mmHg 34%
    20:00 +22°C° 0 mm 1 mps 666 mmHg 34%
    21:00 +21°C° 0 mm 1 mps 666 mmHg 35%
    22:00 +21°C° 0 mm 1 mps 667 mmHg 36%
    23:00 +20°C° 0 mm 1 mps 666 mmHg 38%

    22 Junio, Sábado

    Tiempo Temperatura Precipitaciones Viento Presión Humedad
    00:00 +19°C° 0 mm 1 mps 666 mmHg 41%
    01:00 +18°C° 0 mm 1 mps 666 mmHg 44%
    02:00 +16°C° 0 mm 1 mps 666 mmHg 45%
    03:00 +15°C° 0 mm 1 mps 665 mmHg 46%
    04:00 +15°C° 0 mm 1 mps 665 mmHg 47%
    05:00 +15°C° 0 mm 1 mps 666 mmHg 47%
    06:00 +15°C° 0 mm 1 mps 666 mmHg 48%
    07:00 +14°C° 0 mm 1 mps 666 mmHg 49%
    08:00 +18°C° 0 mm 2 mps 667 mmHg 41%
    09:00 +21°C° 0 mm 2 mps 668 mmHg 34%
    10:00 +26°C° 0 mm 3 mps 669 mmHg 27%
    11:00 +28°C° 0 mm 2 mps 668 mmHg 24%
    12:00 +30°C° 0 mm 2 mps 668 mmHg 21%
    13:00 +32°C° 0 mm 1 mps 668 mmHg 19%
    14:00 +32°C° 0 mm 1 mps 667 mmHg 18%
    15:00 +31°C° 0 mm 1 mps 667 mmHg 18%
    16:00 +31°C° 0 mm 1 mps 666 mmHg 18%
    17:00 +28°C° 0 mm 1 mps 666 mmHg 22%
    18:00 +25°C° 0 mm 1 mps 666 mmHg 26%
    19:00 +22°C° 0 mm 1 mps 666 mmHg 30%
    20:00 +21°C° 0 mm 1 mps 666 mmHg 32%
    21:00 +20°C° 0 mm 1 mps 666 mmHg 34%
    22:00 +19°C° 0 mm 1 mps 666 mmHg 36%
    23:00 +19°C° 0 mm 1 mps 666 mmHg 45%

    23 Junio, Domingo

    Tiempo Temperatura Precipitaciones Viento Presión Humedad
    00:00 +18°C° 0 mm 1 mps 666 mmHg 53%
    01:00 +16°C° 0 mm 1 mps 666 mmHg 61%
    02:00 +15°C° 0 mm 1 mps 666 mmHg 66%
    03:00 +15°C° 0 mm 1 mps 666 mmHg 72%
    04:00 +14°C° 0 mm 1 mps 665 mmHg 78%
    05:00 +14°C° 0 mm 1 mps 666 mmHg 72%
    06:00 +14°C° 0 mm 1 mps 667 mmHg 66%
    07:00 +15°C° 0 mm 1 mps 667 mmHg 60%
    08:00 +18°C° 0 mm 2 mps 668 mmHg 48%
    09:00 +23°C° 0 mm 2 mps 669 mmHg 35%
    10:00 +26°C° 0 mm 3 mps 669 mmHg 23%
    11:00 +28°C° 0 mm 2 mps 669 mmHg 21%
    12:00 +30°C° 0 mm 2 mps 668 mmHg 19%
    13:00 +31°C° 0 mm 2 mps 668 mmHg 17%
    14:00 +31°C° 0 mm 2 mps 668 mmHg 17%
    15:00 +31°C° 0 mm 1 mps 667 mmHg 17%
    16:00 +31°C° 0 mm 1 mps 667 mmHg 16%
    17:00 +28°C° 0 mm 1 mps 666 mmHg 20%
    18:00 +25°C° 0 mm 1 mps 666 mmHg 24%
    19:00 +22°C° 0 mm 1 mps 666 mmHg 27%
    20:00 +21°C° 0 mm 1 mps 666 mmHg 30%
    21:00 +20°C° 0 mm 1 mps 666 mmHg 32%
    22:00 +19°C° 0 mm 1 mps 667 mmHg 34%
    23:00 +18°C° 0 mm 1 mps 666 mmHg 44%
    Mostrar más